Weather History for Imperial, CA

Change the Weather History Date:

Monday, October 28, 2013

  Actual Average Record
Temperature  
Mean Temperature 70 °F -  
Max Temperature 77 °F 84 °F 97 °F (1965)
Min Temperature 64 °F 56 °F 42 °F (1970)
Cooling Degree Days 4    
Growing Degree Days 20 (Base 50)    
Moisture  
Dew Point 48 °F    
Average Humidity 47    
Maximum Humidity 56    
Minimum Humidity 34    
Precipitation  
Precipitation 0.00 in - - ()
Sea Level Pressure  
Sea Level Pressure 29.77 in    
Wind  
Wind Speed 22 mph (WSW)    
Max Wind Speed 29 mph    
Max Gust Speed 39 mph    
Visibility 10 miles    
Events      
Averages and records for this station are not official NWS values.
T = Trace of Precipitation, MM = Missing Value Source: NWS Daily Summary

Daily Weather History Graph

Daily Weather History Graph

Search for Another Location

Airport:

Trip Planner

Search our weather history database for the weather conditions in past years. The results will help you decide how hot, cold, wet, or windy it might be!

Date:

Astronomy

Oct. 28, 2013 Rise Set
Actual Time 6:57 AM PDT 5:54 PM PDT
Civil Twilight 6:31 AM PDT 6:19 PM PDT
Nautical Twilight 6:02 AM PDT 6:48 PM PDT
Astronomical Twilight 5:33 AM PDT 7:17 PM PDT
Moon 1:12 AM PDT (10/28) 2:22 PM PDT (10/28)
Length of Visible Light 11h 48m
Length of Day
10h 57m
Waning Crescent, 33% of the Moon is Illuminated
Oct 28
Waning Crescent
Nov 3
New
Nov 9
First Quarter
Nov 17
Full
Nov 25
Last Quarter

Hourly Weather History & Observations

Time (PDT) Temp. Dew Point Humidity Pressure Visibility Wind Dir Wind Speed Gust Speed Precip Events Conditions
12:53 AM 72.0 °F 42.1 °F 34% 29.71 in 10.0 mi SW 20.7 mph - N/A   Clear
1:53 AM 68.0 °F 46.9 °F 47% 29.72 in 9.0 mi WSW 24.2 mph 29.9 mph N/A   Clear
2:53 AM 66.0 °F 48.9 °F 54% 29.72 in 10.0 mi WSW 21.9 mph 32.2 mph N/A   Clear
3:53 AM 66.0 °F 50.0 °F 56% 29.73 in 10.0 mi WSW 21.9 mph 29.9 mph N/A   Clear
4:53 AM 66.0 °F 50.0 °F 56% 29.73 in 10.0 mi WSW 16.1 mph - N/A   Clear
5:53 AM 66.0 °F 50.0 °F 56% 29.73 in 10.0 mi WSW 21.9 mph 32.2 mph N/A   Clear
6:53 AM 66.9 °F 50.0 °F 54% 29.74 in 10.0 mi WSW 25.3 mph 34.5 mph N/A   Clear
7:53 AM 69.1 °F 50.0 °F 51% 29.75 in 10.0 mi WSW 25.3 mph 35.7 mph N/A   Clear
8:53 AM 71.1 °F 50.0 °F 47% 29.76 in 10.0 mi WSW 20.7 mph 31.1 mph N/A   Clear
9:53 AM 73.0 °F 50.0 °F 44% 29.78 in 10.0 mi WSW 15.0 mph 25.3 mph N/A   Clear
10:53 AM 75.0 °F 52.0 °F 44% 29.79 in 10.0 mi West 16.1 mph 24.2 mph N/A   Clear
11:53 AM 75.9 °F 53.1 °F 45% 29.78 in 10.0 mi West 19.6 mph 27.6 mph N/A   Clear
12:53 PM 75.9 °F 51.1 °F 42% 29.75 in 10.0 mi West 28.8 mph 39.1 mph N/A   Clear
1:53 PM 75.0 °F 50.0 °F 41% 29.74 in 10.0 mi West 27.6 mph 34.5 mph N/A   Clear
2:53 PM 75.0 °F 50.0 °F 41% 29.74 in 10.0 mi West 25.3 mph 35.7 mph N/A   Clear
3:53 PM 73.9 °F 48.0 °F 40% 29.74 in 10.0 mi West 26.5 mph 36.8 mph N/A   Clear
4:53 PM 71.1 °F 48.9 °F 45% 29.75 in 10.0 mi West 25.3 mph 35.7 mph N/A   Clear
5:53 PM 68.0 °F 48.0 °F 49% 29.77 in 10.0 mi West 23.0 mph 33.4 mph N/A   Clear
6:53 PM 66.0 °F 48.0 °F 52% 29.81 in 10.0 mi West 21.9 mph 31.1 mph N/A   Clear
7:53 PM 68.0 °F 46.0 °F 45% 29.82 in 10.0 mi SW 18.4 mph 32.2 mph N/A   Clear
8:53 PM 64.9 °F 45.0 °F 48% 29.84 in 10.0 mi WSW 18.4 mph 24.2 mph N/A   Clear
9:53 PM 64.0 °F 45.0 °F 50% 29.84 in 10.0 mi WSW 21.9 mph - N/A   Clear
10:53 PM 64.0 °F 44.1 °F 48% 29.84 in 10.0 mi West 24.2 mph 33.4 mph N/A   Clear
11:53 PM 64.9 °F 43.0 °F 45% 29.86 in 10.0 mi West 8.1 mph 19.6 mph N/A   Clear